CAPE
0 0 0 0 0 0 0 0 0 0 0 0 0 9 15 28 22 32 12 0 0 12 71 80 65 105 75 56 164 245 50 46 50 39 162 326 64 30 0 0 0 0 0
0 0 0 0 0 0 0 0 0 0 0 0 0 0 0 0 0 0 0 0 0 0 0 26 27 2 76 122 110 192 207 73 12 10 58 198 324 42 3 1 0 3 4
0 0 0 0 0 0 0 0 0 0 0 0 0 0 0 0 0 0 0 0 0 0 0 0 0 28 64 72 115 103 112 159 50 13 10 229 166 33 36 16 26 37 54
0 0 0 0 0 0 0 0 0 0 0 0 0 0 0 0 0 0 0 15 33 10 68 83 40 22 62 98 112 109 202 102 27 32 8 159 196 114 107 169 50 63 87
0 0 0 0 0 0 0 0 0 0 0 0 0 0 0 0 0 0 0 5 125 130 155 81 156 88 44 82 43 70 205 119 41 52 72 181 55 277 306 430 171 125 304
0 0 0 0 0 0 0 0 0 0 0 0 0 0 0 0 0 0 0 21 63 162 174 119 114 97 63 68 51 0 18 176 42 94 94 113 107 561 537 499 433 381 163
0 0 0 0 0 0 0 0 0 3 7 8 8 7 8 11 1 0 0 28 78 150 130 130 92 48 23 68 38 4 0 0 1 98 228 499 697 682 576 604 379 294 84
0 0 0 0 0 0 5 10 13 16 18 20 19 16 23 17 1 0 0 14 66 156 148 127 104 72 19 9 25 51 182 177 21 75 55 460 801 580 408 297 52 41 35
0 0 0 0 2 6 7 8 8 19 19 21 21 25 23 31 2 0 0 3 28 65 103 89 46 6 0 0 0 0 40 289 96 34 42 160 55 1 9 12 55 17 10
0 0 1 5 5 9 3 7 11 3 4 6 7 10 13 27 3 0 0 1 11 42 60 71 1 0 0 0 6 8 15 388 359 183 64 1 0 0 0 42 41 34 33
4 6 8 8 8 12 10 14 11 11 13 14 19 18 21 16 19 0 0 0 8 29 47 46 31 1 0 0 0 88 121 422 391 583 111 159 2 0 0 61 295 82 82
15 18 14 5 15 18 13 12 15 17 14 13 17 20 18 14 6 3 0 0 0 14 34 34 30 0 0 1 0 0 0 4 602 544 149 66 23 0 12 133 145 130 190
16 8 11 14 13 12 17 15 11 12 11 11 17 16 14 14 7 6 0 0 0 1 19 15 1 0 1 0 0 0 1 3 265 137 16 41 88 85 350 165 162 144 135
11 10 11 10 10 12 14 13 13 11 11 13 14 15 15 11 8 11 19 2 0 0 1 7 0 0 0 2 1 0 4 9 0 26 3 82 122 141 130 123 204 244 377
11 11 8 8 7 10 8 8 10 8 10 12 13 19 22 20 19 0 0 1 1 8 22 55 66 25 7 8 7 4 10 23 36 26 117 131 139 208 253 364 470 541 655
10 8 6 9 7 9 8 4 1 1 2 1 1 8 15 10 0 0 0 0 0 0 1 67 61 44 15 31 21 7 1 5 5 12 157 210 291 509 504 481 569 640 890
10 8 7 8 7 6 6 6 5 0 0 0 0 0 1 2 1 0 0 0 0 0 1 38 86 131 16 6 54 61 34 87 124 173 249 414 495 672 427 488 536 667 766
9 11 10 6 6 5 5 4 4 3 3 3 1 0 0 0 0 0 0 0 4 0 10 0 0 114 4 4 81 133 209 159 337 347 643 571 762 647 686 694 657 754 810
10 7 8 6 4 5 3 3 2 2 2 3 3 6 2 0 0 0 0 5 7 43 11 0 18 80 82 26 56 126 244 220 269 492 538 631 714 696 630 703 702 183 434
7 6 7 4 4 3 1 5 0 0 1 3 10 12 14 5 11 10 6 5 5 0 41 15 49 59 61 63 94 100 387 189 355 382 387 544 643 673 690 724 701 399 460
7 8 1 4 11 9 8 5 7 5 9 4 9 8 4 15 16 12 9 4 5 1 13 47 40 29 88 54 66 201 393 380 414 422 512 550 590 518 488 484 694 701 619
5 9 11 9 9 8 5 5 9 3 8 7 10 6 0 11 16 12 8 6 4 0 1 13 28 0 23 33 61 127 396 439 442 453 473 501 400 398 452 589 668 652 664
10 11 9 8 11 4 7 5 6 6 2 7 8 8 7 9 11 12 9 9 6 2 0 0 0 0 0 0 0 80 259 395 495 553 543 536 479 616 621 619 641 716 607
11 8 9 8 10 8 7 6 8 2 5 2 6 7 9 12 12 3 7 12 17 13 0 0 0 0 0 0 0 0 36 179 298 442 515 515 605 375 663 733 668 664 470
11 8 7 10 9 8 6 6 7 7 5 7 2 5 8 8 16 5 10 7 14 2 0 0 0 0 0 0 0 0 0 0 50 69 422 644 714 672 746 700 628 497 1
8 6 7 7 9 8 8 6 6 7 6 5 5 4 1 12 11 14 11 5 10 16 6 0 0 0 0 0 0 0 0 0 0 0 138 374 508 565 580 597 543 253 0
CIN
-0 -0 -0 -0 -0 -0 -0 -0 -0 -0 -0 -0 -0 -47 -73 -62 -27 -27 -21 -0 -0 -34 -46 -36 -31 -26 -10 -2 -2 -0 -15 -13 -10 -29 -13 -12 -58 -101 -0 -0 -0 -0 -0
-0 -0 -0 -0 -0 -0 -0 -0 -0 -0 -0 -0 -0 -0 -0 -0 -0 -0 -0 -0 -0 -0 -0 -34 -38 -1 -15 -1 -0 -0 -0 -21 -1 -0 -37 -9 -2 -69 -0 -0 -0 -0 -0
-0 -0 -0 -0 -0 -0 -0 -0 -0 -0 -0 -0 -0 -0 -0 -0 -0 -0 -0 -0 -0 -0 -0 -0 -0 -28 -25 -21 -0 -1 -5 -0 -18 -0 -0 -5 -5 -56 -57 -8 -31 -0 -28
-0 -0 -0 -0 -0 -0 -0 -0 -0 -0 -0 -0 -0 -0 -0 -0 -0 -0 -0 -4 -5 -6 -1 -3 -2 -11 -13 -17 -9 -0 -0 -2 -0 -10 -0 -23 -5 -34 -24 -18 -27 -62 -35
-0 -0 -0 -0 -0 -0 -0 -0 -0 -0 -0 -0 -0 -0 -0 -0 -0 -0 -0 -0 -0 -0 -0 -0 -0 -6 -34 -33 -12 -1 -0 -0 -21 -17 -15 -19 -61 -7 -9 -4 -40 -32 -64
-0 -0 -0 -0 -0 -0 -0 -0 -0 -0 -0 -0 -0 -0 -0 -0 -0 -0 -0 -0 -0 -0 -0 -0 -0 -15 -44 -60 -53 -0 -16 -0 -5 -4 -7 -30 -73 -0 -0 -9 -4 -12 -55
-0 -0 -0 -0 -0 -0 -0 -0 -0 -0 -0 -0 -0 -0 -0 -0 -0 -0 -0 -0 -0 -0 -0 -0 -0 -0 -11 -6 -17 -43 -0 -0 -25 -13 -0 -0 -0 -0 -5 -9 -20 -28 -20
-0 -0 -0 -0 -0 -0 -0 -0 -0 -0 -0 -0 -0 -0 -0 -0 -1 -3 -0 -8 -0 -0 -0 -0 -0 -0 -18 -21 -4 -0 -0 -3 -81 -34 -32 -8 -0 -0 -22 -50 -119 -74 -70
-0 -0 -0 -0 -0 -0 -0 -0 -0 -0 -0 -0 -0 -0 -0 -0 -1 -0 -0 -0 -0 -0 -0 -0 -0 -0 -0 -0 -13 -0 -0 -0 -24 -57 -40 -17 -127 -37 -185 -108 -44 -24 -14
-0 -0 -0 -0 -0 -0 -0 -0 -0 -0 -0 -0 -0 -0 -0 -0 -1 -0 -0 -0 -0 -0 -0 -0 -7 -0 -0 -0 -0 -0 -0 -0 -0 -26 -62 -0 -0 -0 -0 -79 -73 -25 -7
-0 -0 -0 -0 -0 -0 -0 -0 -0 -0 -0 -0 -0 -0 -0 -0 -0 -0 -0 -0 -0 -0 -0 -0 -0 -3 -0 -0 -0 -38 -9 -3 -2 -0 -24 -15 -24 -0 -0 -42 -15 -5 -10
-0 -0 -0 -0 -0 -0 -0 -0 -0 -0 -0 -0 -0 -0 -0 -0 -0 -0 -0 -0 -0 -0 -0 -0 -0 -0 -0 -0 -0 -0 -0 -43 -0 -0 -1 -28 -15 -0 -21 -57 -73 -59 -42
-0 -0 -0 -0 -0 -0 -0 -0 -0 -0 -0 -0 -0 -0 -0 -0 -1 -0 -0 -0 -0 -0 -0 -1 -11 -0 -1 -0 -0 -0 -0 -0 -0 -0 -57 -1 -0 -2 -36 -87 -93 -96 -98
-0 -0 -0 -0 -0 -0 -0 -0 -0 -0 -0 -0 -0 -0 -0 -0 -0 -0 -3 -10 -1 -0 -0 -12 -8 -0 -0 -0 -0 -0 -0 -0 -0 -75 -13 -21 -11 -63 -41 -67 -56 -49 -11
-0 -0 -0 -0 -0 -0 -0 -0 -0 -0 -0 -0 -0 -0 -0 -0 -0 -0 -0 -0 -0 -1 -2 -0 -0 -0 -0 -0 -18 -0 -0 -0 -35 -7 -7 -0 -19 -22 -40 -44 -17 -9 -0
-0 -0 -0 -0 -0 -0 -0 -0 -0 -0 -0 -0 -0 -0 -0 -0 -0 -0 -0 -0 -0 -0 -2 -0 -0 -0 -6 -0 -5 -3 -0 -36 -12 -25 -0 -1 -10 -20 -29 -23 -9 -7 -1
-0 -0 -0 -0 -0 -0 -0 -0 -0 -0 -1 -0 -0 -0 -0 -0 -0 -1 -0 -0 -0 -0 -0 -0 -0 -0 -7 -1 -0 -2 -13 -17 -11 -0 -4 -24 -12 -10 -39 -24 -13 -6 -5
-0 -0 -0 -0 -0 -0 -0 -0 -0 -0 -0 -0 -0 -0 -0 -0 -0 -0 -0 -0 -0 -0 -0 -0 -0 -0 -0 -4 -9 -0 -0 -0 -4 -0 -0 -4 -10 -21 -12 -9 -11 -8 -2
-0 -0 -0 -0 -0 -0 -0 -0 -0 -0 -0 -0 -0 -0 -0 -0 -0 -0 -0 -0 -0 -0 -1 -0 -1 -0 -7 -28 -2 -0 -0 -17 -30 -10 -6 -19 -14 -15 -14 -12 -15 -106 -33
-0 -0 -0 -0 -0 -0 -0 -0 -0 -0 -0 -0 -0 -0 -0 -0 -0 -0 -0 -0 -0 -4 -0 -1 -0 -10 -5 -12 -6 -10 -2 -55 -34 -30 -27 -24 -25 -18 -12 -17 -19 -46 -26
-0 -0 -0 -0 -0 -0 -0 -0 -0 -0 -0 -0 -0 -0 -0 -0 -0 -0 -0 -0 -0 -0 -5 -0 -0 -1 -20 -0 -5 -3 -1 -7 -19 -17 -25 -32 -32 -24 -30 -34 -17 -8 -8
-0 -0 -0 -0 -0 -0 -0 -0 -0 -0 -0 -0 -0 -0 -0 -0 -0 -0 -0 -0 -0 -0 -0 -0 -0 -48 -24 -11 -20 -1 -1 -3 -16 -13 -15 -31 -35 -30 -43 -33 -17 -10 -11
-0 -0 -0 -0 -0 -0 -0 -0 -0 -0 -0 -0 -0 -0 -0 -0 -0 -0 -0 -0 -0 -0 -0 -0 -0 -1 -0 -0 -0 -24 -0 -4 -11 -11 -15 -27 -26 -18 -31 -26 -10 -6 -9
-0 -0 -0 -0 -0 -0 -0 -0 -0 -0 -0 -0 -0 -0 -0 -0 -0 -0 -0 -0 -0 -0 -0 -0 -0 -0 -0 -0 -0 -0 -51 -6 -7 -13 -13 -16 -15 -50 -7 -6 -6 -3 -11
-0 -0 -0 -0 -0 -0 -0 -0 -0 -0 -0 -0 -0 -0 -0 -0 -0 -1 -0 -0 -0 -0 -0 -0 -0 -0 -0 -0 -0 -0 -0 -0 -28 -67 -22 -15 -12 -17 -5 -5 -7 -5 -0
-0 -0 -0 -0 -0 -0 -0 -0 -0 -0 -0 -0 -0 -0 -0 -0 -0 -0 -0 -0 -0 -0 -0 -0 -0 -0 -0 -0 -0 -0 -0 -0 -0 -0 -44 -23 -15 -11 -9 -10 -5 -18 -0
Wind_Speed
10 9 9 8 6 5 5 7 8 9 10 11 12 13 13 14 14 12 12 12 12 11 10 10 12 12 10 10 8 10 8 7 10 12 13 12 11 11 10 10 9 11 10
7 8 8 8 8 7 7 6 6 9 8 10 11 13 15 16 15 15 15 14 14 14 13 12 13 10 12 12 10 12 9 9 7 11 14 13 12 10 11 10 10 11 11
9 9 9 9 10 11 11 10 11 12 12 13 13 14 14 15 16 17 17 17 17 16 16 15 14 13 12 11 12 9 8 8 8 8 11 13 9 7 7 8 9 12 9
11 11 12 11 11 12 12 13 14 14 16 16 16 17 17 17 18 18 18 18 18 17 16 16 15 15 14 14 12 13 9 9 9 9 8 11 9 8 6 7 6 8 6
13 13 13 14 14 15 16 16 17 17 17 18 19 19 19 18 15 18 18 18 18 19 18 17 16 16 14 13 11 11 10 10 8 8 9 8 8 8 9 6 6 5 5
14 15 16 16 16 17 17 17 17 18 18 18 19 20 20 15 18 15 18 18 19 19 19 18 18 14 14 15 14 15 16 11 11 8 7 8 9 11 8 7 6 6 6
16 17 18 17 18 18 18 18 18 18 18 19 19 20 21 21 17 15 16 19 19 18 18 16 16 14 11 13 12 15 16 17 17 10 11 13 14 12 10 8 6 5 3
18 18 18 17 18 18 18 18 18 16 17 18 20 21 19 16 13 13 16 17 19 19 18 16 15 13 14 14 14 15 13 12 14 14 15 14 13 7 10 5 4 4 3
18 18 18 18 18 17 18 21 19 17 14 14 13 16 17 19 24 17 19 18 18 21 17 16 16 17 15 11 17 19 17 14 9 13 14 11 5 9 9 7 8 7 8
18 19 18 17 19 20 16 17 15 11 15 14 16 16 19 18 19 22 20 13 15 14 18 18 14 16 11 12 17 18 18 14 10 8 10 6 8 8 12 10 10 11 7
18 18 18 19 18 16 15 14 13 15 13 14 16 14 17 18 16 18 19 12 10 10 12 12 11 12 16 17 18 18 16 14 12 10 7 7 7 6 6 6 8 7 7
16 17 16 15 13 11 15 14 15 14 14 14 14 14 13 14 16 20 21 19 16 11 11 10 10 11 13 15 14 22 14 10 11 8 6 6 10 12 12 8 7 5 5
17 17 15 15 14 13 14 14 12 12 10 12 11 11 12 9 9 21 17 17 15 11 10 9 10 10 10 7 14 14 14 10 10 8 8 10 12 11 11 9 7 5 5
17 16 13 13 14 13 11 10 10 10 10 10 10 10 10 10 7 10 6 8 12 8 9 11 12 12 9 9 5 6 8 10 9 9 9 10 10 10 9 8 8 6 5
14 13 13 12 13 13 12 10 10 12 11 10 10 9 9 10 7 4 6 7 5 7 8 9 7 9 6 6 5 5 6 9 11 9 10 12 11 11 9 8 7 8 6
14 11 11 11 11 10 11 13 16 22 24 24 24 18 11 13 17 13 12 9 10 12 8 9 7 8 7 8 7 4 2 6 6 9 11 12 12 10 10 9 8 7 7
14 14 12 13 11 11 10 10 12 12 17 21 22 22 23 19 14 9 13 11 13 7 6 7 6 9 7 7 8 8 3 4 10 10 10 11 10 9 9 8 7 7 5
14 22 12 11 10 11 10 11 10 10 11 8 11 17 16 18 16 14 12 6 10 6 7 7 6 5 7 9 7 5 7 6 9 11 10 10 9 10 9 9 8 8 7
12 11 11 11 11 13 12 12 10 10 10 9 6 7 10 14 12 13 9 7 6 7 8 7 7 4 6 9 7 7 9 9 8 9 9 8 8 8 8 8 7 5 6
11 19 16 11 11 10 9 9 7 8 8 6 4 5 4 5 5 6 6 6 5 7 6 8 5 4 5 7 7 4 6 6 8 8 8 7 8 7 8 8 7 8 7
10 11 13 10 9 9 9 9 6 7 7 2 4 4 4 4 4 5 6 6 4 4 3 6 7 5 6 6 4 4 5 7 7 8 8 8 8 8 7 7 7 8 7
10 10 10 10 9 9 10 9 7 5 5 3 3 2 3 4 4 5 7 7 5 5 5 2 4 7 4 2 3 5 6 7 7 7 8 8 7 7 7 7 8 7 7
9 10 10 9 9 11 9 9 9 6 4 4 3 2 3 4 3 4 7 9 7 5 3 3 2 5 6 0 1 3 5 6 7 7 8 8 8 7 8 8 8 7 7
10 10 10 9 9 9 9 10 9 10 8 2 2 2 2 3 5 6 7 8 9 7 5 3 2 3 4 2 2 2 5 5 5 8 9 8 9 8 8 7 7 9 8
10 10 10 10 10 10 11 10 10 10 9 8 3 2 2 4 4 3 4 7 9 8 8 5 4 7 5 4 2 4 2 1 6 5 8 9 10 12 9 8 9 9 11
10 11 10 9 9 10 10 11 11 10 10 9 9 0 2 4 4 2 5 5 6 7 7 7 7 8 5 4 5 6 1 4 5 7 8 8 9 9 9 9 13 9 12
Wind_Direction
15 6 0 357 356 315 280 266 254 269 267 257 258 257 251 248 245 235 232 236 238 242 241 243 253 260 264 263 258 254 245 243 258 268 275 278 277 268 272 256 248 248 251
355 341 336 324 322 305 297 307 291 274 268 260 259 252 249 246 245 247 245 237 235 242 246 250 251 255 253 260 262 257 243 236 237 251 264 274 256 269 264 264 255 237 237
337 331 323 316 318 313 304 298 292 286 277 269 263 260 257 253 248 243 243 243 241 239 243 245 249 255 260 264 261 255 251 249 233 234 255 267 267 270 274 264 251 233 225
326 320 316 314 309 301 294 287 281 277 276 272 269 268 266 262 257 253 250 245 243 244 242 239 244 245 253 260 261 263 250 242 241 236 236 255 251 265 255 246 214 216 194
314 310 306 301 297 292 287 284 282 276 272 272 272 268 266 261 258 255 253 251 247 244 241 242 242 245 249 250 261 262 244 245 239 238 230 240 240 237 233 216 217 182 175
307 301 301 298 294 290 286 283 281 280 279 279 275 274 272 266 264 238 245 257 253 248 244 241 243 241 242 235 243 251 257 245 239 233 228 226 226 236 239 224 204 191 182
300 299 298 297 293 291 289 286 283 283 285 281 280 279 277 271 262 250 239 254 256 251 250 246 241 242 235 258 238 235 249 239 238 247 233 224 227 226 220 200 195 189 181
300 300 300 298 294 292 288 286 284 281 279 275 280 277 271 271 272 272 261 263 262 257 249 246 243 249 254 258 263 267 259 240 230 236 243 255 247 240 198 192 135 104 108
300 301 301 300 296 295 293 293 289 283 276 273 278 278 278 278 271 261 261 261 255 258 254 239 240 245 253 224 251 256 260 252 236 236 234 243 211 208 190 159 167 173 176
304 304 300 300 301 294 292 284 281 282 282 275 273 267 270 269 271 271 266 267 249 246 248 239 221 244 254 222 244 247 246 245 229 218 218 218 211 226 210 196 167 190 164
305 299 298 301 294 280 283 282 284 279 277 276 275 274 270 262 261 266 253 254 247 243 238 235 241 215 232 236 222 241 237 246 233 213 194 197 199 178 185 214 179 174 169
299 299 296 291 282 280 279 278 275 273 270 268 269 269 267 271 276 261 250 236 240 242 249 249 260 242 228 232 209 228 237 246 244 216 183 186 184 184 174 176 155 126 87
303 298 289 285 284 281 277 277 276 268 265 269 264 269 270 260 260 272 247 227 221 234 245 261 271 268 269 247 215 206 207 216 218 195 182 204 192 180 147 142 138 138 123
297 291 291 289 291 285 278 272 270 268 264 262 264 266 272 270 268 286 232 229 235 234 243 251 252 254 260 244 168 200 206 198 181 180 176 181 169 151 162 156 156 163 171
294 296 294 290 288 288 279 273 266 262 255 264 262 261 266 267 267 314 348 337 330 277 265 239 233 243 229 197 184 180 186 178 182 158 167 174 170 163 151 152 159 171 183
301 300 293 294 290 284 284 289 261 255 259 256 259 252 257 260 285 300 302 307 322 317 275 237 225 223 207 199 169 114 160 150 147 145 198 177 163 158 150 160 171 187 172
297 298 294 292 286 284 281 277 286 287 254 251 251 254 247 248 251 263 282 300 300 277 236 237 234 223 194 177 157 122 228 231 200 183 191 170 162 154 150 162 178 185 168
296 294 290 288 285 284 280 278 273 273 283 278 238 240 246 237 235 235 246 283 275 203 228 229 246 212 159 163 155 176 167 196 185 175 180 162 156 157 165 172 180 173 182
303 296 292 289 284 281 279 275 270 267 262 266 267 238 248 228 217 218 214 234 284 255 197 216 232 165 172 178 190 202 170 186 167 169 168 156 161 166 171 178 165 169 185
301 298 295 291 291 290 287 293 288 274 268 262 252 246 242 196 196 199 200 211 236 292 191 202 196 168 175 179 156 215 202 158 172 172 159 159 167 170 163 163 164 170 193
303 302 301 295 306 311 313 314 317 325 322 270 263 247 242 218 181 181 197 192 192 250 267 168 176 180 176 165 148 223 177 165 170 159 156 159 164 160 162 165 171 170 170
307 308 313 316 320 323 321 312 312 324 321 306 296 262 201 221 190 184 206 191 181 216 249 157 157 125 141 127 191 213 194 168 166 159 159 156 160 163 170 169 167 162 158
320 323 325 327 329 327 330 333 332 321 323 326 316 283 177 202 210 195 197 198 187 177 221 231 282 115 110 151 284 218 202 184 178 173 170 163 160 172 172 168 165 165 171
333 335 337 335 339 337 338 335 337 339 331 284 312 299 188 197 195 242 199 205 191 189 191 215 232 246 131 186 178 201 226 217 194 183 180 178 168 164 169 170 173 170 159
345 345 345 342 344 343 339 341 343 345 342 342 274 259 193 189 181 192 190 211 194 196 189 197 209 226 215 237 232 285 273 168 228 164 176 175 169 176 171 172 168 159 150
352 351 348 347 347 346 345 343 345 345 345 342 343 298 190 191 183 180 187 202 206 200 205 203 208 224 234 265 310 352 34 162 192 202 175 170 161 163 162 164 164 156 161